QPF
0.00 0.01 0.01 0.01 0.01 0.00 0.00 0.00 0.00 0.00 0.00 0.00 0.00 0.00 0.00 0.00 0.00 0.00 0.00 0.01 0.01 0.01 0.01 0.01 0.01 0.01 0.01 0.01 0.02 0.02 0.01 0.01 0.01 0.01 0.01 0.01 0.01 0.00 0.00 0.00 0.00 0.00 0.00 0.00
0.00 0.00 0.00 0.01 0.00 0.00 0.00 0.00 0.01 0.00 0.00 0.00 0.00 0.00 0.00 0.00 0.00 0.00 0.00 0.01 0.01 0.01 0.01 0.01 0.01 0.02 0.02 0.02 0.02 0.02 0.01 0.01 0.01 0.00 0.00 0.00 0.00 0.00 0.00 0.00 0.00 0.00 0.00 0.00
0.00 0.00 0.00 0.00 0.00 0.00 0.01 0.01 0.01 0.01 0.01 0.00 0.00 0.01 0.00 0.00 0.00 0.00 0.00 0.00 0.01 0.01 0.01 0.00 0.00 0.01 0.01 0.02 0.03 0.02 0.01 0.00 0.01 0.00 0.00 0.01 0.01 0.01 0.01 0.01 0.00 0.00 0.00 0.01
0.01 0.01 0.00 0.00 0.00 0.00 0.01 0.01 0.00 0.00 0.01 0.01 0.01 0.01 0.01 0.00 0.00 0.00 0.00 0.01 0.01 0.01 0.00 0.00 0.00 0.00 0.01 0.02 0.03 0.04 0.02 0.01 0.00 0.00 0.00 0.01 0.00 0.00 0.00 0.00 0.00 0.01 0.02 0.01
0.02 0.01 0.02 0.02 0.00 0.00 0.00 0.01 0.00 0.00 0.00 0.01 0.01 0.01 0.01 0.01 0.01 0.01 0.01 0.01 0.01 0.01 0.01 0.01 0.01 0.01 0.01 0.02 0.03 0.04 0.03 0.01 0.00 0.00 0.00 0.01 0.00 0.00 0.00 0.00 0.01 0.02 0.02 0.00
0.01 0.00 0.01 0.01 0.01 0.01 0.01 0.00 0.00 0.00 0.00 0.02 0.00 0.01 0.02 0.01 0.01 0.01 0.01 0.00 0.01 0.01 0.01 0.01 0.01 0.01 0.01 0.01 0.02 0.03 0.03 0.02 0.01 0.00 0.00 0.00 0.00 0.00 0.00 0.00 0.01 0.02 0.01 0.01
0.01 0.01 0.00 0.00 0.01 0.01 0.00 0.01 0.02 0.02 0.02 0.01 0.00 0.00 0.01 0.00 0.00 0.01 0.00 0.00 0.00 0.00 0.01 0.01 0.01 0.01 0.01 0.01 0.01 0.01 0.02 0.01 0.01 0.00 0.00 0.00 0.00 0.00 0.00 0.00 0.01 0.02 0.02 0.02
0.01 0.01 0.00 0.00 0.01 0.01 0.00 0.01 0.02 0.02 0.02 0.01 0.01 0.01 0.00 0.00 0.00 0.00 0.00 0.00 0.00 0.00 0.00 0.01 0.01 0.01 0.01 0.01 0.01 0.01 0.01 0.01 0.01 0.00 0.00 0.00 0.00 0.00 0.00 0.00 0.00 0.01 0.02 0.01
0.01 0.01 0.00 0.00 0.00 0.00 0.01 0.01 0.01 0.01 0.01 0.01 0.01 0.01 0.00 0.00 0.00 0.00 0.00 0.00 0.00 0.00 0.00 0.00 0.00 0.01 0.01 0.01 0.01 0.01 0.00 0.01 0.01 0.00 0.00 0.00 0.00 0.00 0.00 0.00 0.00 0.01 0.01 0.00
0.00 0.01 0.00 0.00 0.00 0.00 0.00 0.01 0.01 0.02 0.02 0.02 0.01 0.02 0.01 0.01 0.00 0.00 0.00 0.00 0.00 0.00 0.00 0.00 0.00 0.00 0.01 0.01 0.01 0.00 0.00 0.01 0.01 0.00 0.00 0.00 0.00 0.00 0.00 0.00 0.00 0.00 0.00 0.00
0.00 0.01 0.01 0.00 0.00 0.01 0.00 0.00 0.01 0.01 0.02 0.03 0.03 0.04 0.02 0.02 0.01 0.00 0.00 0.01 0.00 0.00 0.00 0.00 0.00 0.00 0.01 0.01 0.00 0.00 0.00 0.00 0.00 0.00 0.00 0.00 0.00 0.00 0.00 0.00 0.00 0.00 0.00 0.00
0.00 0.01 0.01 0.01 0.00 0.00 0.01 0.01 0.01 0.02 0.02 0.02 0.03 0.04 0.01 0.01 0.01 0.00 0.00 0.00 0.01 0.01 0.01 0.00 0.00 0.00 0.00 0.01 0.01 0.00 0.01 0.00 0.00 0.00 0.00 0.00 0.00 0.00 0.00 0.00 0.00 0.00 0.00 0.00
0.00 0.01 0.02 0.02 0.02 0.01 0.01 0.01 0.01 0.01 0.02 0.02 0.03 0.02 0.01 0.01 0.00 0.01 0.01 0.00 0.01 0.01 0.01 0.01 0.01 0.01 0.00 0.00 0.00 0.01 0.01 0.01 0.00 0.00 0.00 0.00 0.00 0.00 0.00 0.00 0.00 0.00 0.00 0.00
0.00 0.01 0.01 0.02 0.01 0.01 0.01 0.00 0.01 0.01 0.02 0.03 0.02 0.01 0.01 0.01 0.01 0.00 0.00 0.00 0.00 0.01 0.01 0.01 0.01 0.01 0.01 0.00 0.00 0.00 0.01 0.00 0.01 0.00 0.00 0.00 0.00 0.00 0.00 0.00 0.00 0.00 0.00 0.00
0.00 0.00 0.00 0.01 0.01 0.01 0.01 0.00 0.00 0.00 0.00 0.02 0.03 0.02 0.01 0.01 0.01 0.00 0.00 0.01 0.01 0.01 0.01 0.02 0.01 0.01 0.01 0.00 0.00 0.01 0.00 0.00 0.01 0.01 0.00 0.00 0.00 0.00 0.00 0.00 0.00 0.00 0.00 0.00
0.01 0.01 0.00 0.00 0.01 0.01 0.01 0.00 0.00 0.00 0.00 0.01 0.01 0.01 0.01 0.01 0.01 0.01 0.00 0.01 0.02 0.01 0.02 0.02 0.01 0.01 0.01 0.01 0.01 0.00 0.00 0.00 0.01 0.01 0.00 0.00 0.00 0.00 0.00 0.00 0.00 0.00 0.00 0.00
0.02 0.01 0.01 0.01 0.00 0.01 0.01 0.01 0.00 0.00 0.00 0.01 0.01 0.01 0.01 0.01 0.01 0.01 0.01 0.01 0.01 0.01 0.01 0.02 0.02 0.02 0.02 0.01 0.01 0.00 0.00 0.00 0.00 0.01 0.00 0.01 0.00 0.00 0.00 0.00 0.00 0.00 0.00 0.01
0.03 0.02 0.02 0.01 0.01 0.01 0.00 0.00 0.00 0.00 0.00 0.01 0.01 0.00 0.00 0.00 0.00 0.00 0.00 0.00 0.01 0.01 0.01 0.01 0.02 0.02 0.01 0.01 0.00 0.00 0.00 0.00 0.00 0.00 0.00 0.00 0.00 0.00 0.00 0.00 0.00 0.00 0.00 0.00
0.02 0.03 0.04 0.03 0.02 0.01 0.00 0.00 0.00 0.00 0.00 0.00 0.00 0.00 0.00 0.00 0.00 0.00 0.00 0.00 0.00 0.00 0.01 0.01 0.01 0.01 0.01 0.01 0.00 0.00 0.01 0.01 0.00 0.00 0.00 0.00 0.00 0.00 0.01 0.01 0.00 0.00 0.00 0.00
0.02 0.03 0.04 0.04 0.04 0.02 0.00 0.00 0.00 0.00 0.00 0.00 0.00 0.00 0.00 0.00 0.01 0.02 0.01 0.00 0.00 0.00 0.00 0.01 0.01 0.01 0.01 0.01 0.00 0.00 0.00 0.00 0.00 0.00 0.00 0.00 0.00 0.00 0.01 0.01 0.01 0.00 0.01 0.01
0.04 0.04 0.04 0.03 0.04 0.02 0.00 0.00 0.00 0.01 0.01 0.01 0.00 0.00 0.00 0.00 0.01 0.01 0.00 0.00 0.00 0.00 0.00 0.00 0.00 0.00 0.00 0.01 0.01 0.01 0.00 0.01 0.00 0.00 0.00 0.00 0.00 0.01 0.01 0.02 0.01 0.01 0.01 0.01
0.03 0.04 0.04 0.03 0.03 0.01 0.00 0.00 0.01 0.02 0.01 0.01 0.00 0.00 0.00 0.00 0.00 0.00 0.00 0.00 0.00 0.00 0.00 0.00 0.01 0.01 0.00 0.00 0.01 0.02 0.01 0.01 0.01 0.01 0.01 0.01 0.01 0.01 0.01 0.01 0.01 0.01 0.01 0.02
0.01 0.02 0.02 0.02 0.01 0.00 0.00 0.00 0.00 0.00 0.01 0.00 0.00 0.00 0.00 0.00 0.00 0.00 0.00 0.00 0.00 0.00 0.00 0.00 0.01 0.01 0.01 0.01 0.01 0.01 0.01 0.01 0.01 0.01 0.01 0.01 0.01 0.01 0.01 0.02 0.02 0.02 0.01 0.02
0.01 0.01 0.01 0.01 0.01 0.01 0.00 0.00 0.00 0.00 0.00 0.00 0.00 0.00 0.00 0.00 0.00 0.00 0.00 0.00 0.00 0.00 0.00 0.00 0.01 0.01 0.01 0.01 0.01 0.01 0.01 0.01 0.01 0.01 0.01 0.01 0.01 0.01 0.01 0.02 0.02 0.02 0.02 0.01
0.03 0.02 0.01 0.01 0.01 0.00 0.01 0.01 0.01 0.00 0.00 0.00 0.00 0.00 0.00 0.00 0.00 0.00 0.01 0.00 0.00 0.00 0.00 0.00 0.01 0.01 0.01 0.01 0.01 0.01 0.01 0.01 0.01 0.01 0.01 0.01 0.01 0.01 0.01 0.01 0.01 0.02 0.02 0.03
0.02 0.02 0.02 0.01 0.01 0.01 0.01 0.00 0.01 0.00 0.00 0.00 0.00 0.00 0.00 0.00 0.00 0.00 0.00 0.01 0.01 0.00 0.00 0.00 0.00 0.01 0.01 0.01 0.01 0.01 0.02 0.02 0.01 0.01 0.01 0.01 0.01 0.01 0.01 0.01 0.01 0.02 0.02 0.03
MSLP
1012.77 1013.46 1014.03 1014.45 1014.69 1014.78 1014.74 1014.64 1014.51 1014.40 1014.30 1014.23 1014.16 1014.08 1013.98 1013.85 1013.69 1013.54 1013.42 1013.34 1013.34 1013.41 1013.55 1013.74 1013.96 1014.18 1014.40 1014.59 1014.77 1014.94 1015.11 1015.29 1015.50 1015.71 1015.91 1016.08 1016.20 1016.24 1016.20 1016.08 1015.92 1015.73 1015.57 1015.46
1013.40 1014.03 1014.52 1014.84 1015.00 1015.03 1014.97 1014.88 1014.80 1014.76 1014.74 1014.73 1014.71 1014.63 1014.50 1014.29 1014.04 1013.79 1013.56 1013.41 1013.36 1013.42 1013.58 1013.81 1014.07 1014.33 1014.57 1014.77 1014.94 1015.10 1015.26 1015.45 1015.67 1015.91 1016.16 1016.39 1016.55 1016.63 1016.61 1016.49 1016.30 1016.08 1015.87 1015.72
1013.93 1014.46 1014.84 1015.07 1015.15 1015.13 1015.08 1015.03 1015.03 1015.09 1015.17 1015.25 1015.28 1015.22 1015.05 1014.78 1014.43 1014.07 1013.76 1013.54 1013.45 1013.50 1013.68 1013.95 1014.25 1014.55 1014.80 1015.01 1015.16 1015.29 1015.43 1015.60 1015.82 1016.08 1016.36 1016.62 1016.83 1016.94 1016.94 1016.83 1016.64 1016.41 1016.18 1016.00
1014.35 1014.76 1015.02 1015.14 1015.15 1015.12 1015.10 1015.13 1015.25 1015.43 1015.63 1015.81 1015.90 1015.85 1015.64 1015.29 1014.84 1014.37 1013.96 1013.68 1013.55 1013.60 1013.81 1014.12 1014.47 1014.81 1015.08 1015.28 1015.41 1015.51 1015.61 1015.74 1015.94 1016.19 1016.48 1016.77 1017.01 1017.16 1017.19 1017.10 1016.92 1016.69 1016.45 1016.26
1014.70 1014.97 1015.10 1015.13 1015.10 1015.07 1015.11 1015.25 1015.50 1015.83 1016.16 1016.44 1016.57 1016.52 1016.26 1015.81 1015.25 1014.67 1014.16 1013.80 1013.64 1013.69 1013.92 1014.28 1014.68 1015.06 1015.35 1015.56 1015.67 1015.73 1015.78 1015.87 1016.03 1016.27 1016.55 1016.86 1017.12 1017.29 1017.35 1017.29 1017.13 1016.91 1016.68 1016.49
1014.99 1015.13 1015.16 1015.12 1015.07 1015.07 1015.20 1015.46 1015.86 1016.33 1016.79 1017.14 1017.31 1017.23 1016.89 1016.34 1015.65 1014.94 1014.32 1013.87 1013.67 1013.71 1013.97 1014.37 1014.82 1015.24 1015.57 1015.78 1015.89 1015.92 1015.93 1015.98 1016.10 1016.31 1016.58 1016.88 1017.15 1017.35 1017.44 1017.41 1017.27 1017.08 1016.87 1016.69
1015.27 1015.31 1015.25 1015.17 1015.12 1015.19 1015.41 1015.81 1016.35 1016.94 1017.50 1017.91 1018.08 1017.95 1017.52 1016.84 1016.01 1015.16 1014.42 1013.88 1013.63 1013.65 1013.92 1014.35 1014.85 1015.32 1015.69 1015.93 1016.04 1016.06 1016.04 1016.06 1016.15 1016.33 1016.58 1016.87 1017.15 1017.36 1017.47 1017.47 1017.36 1017.20 1017.01 1016.86
1015.54 1015.51 1015.42 1015.33 1015.31 1015.45 1015.77 1016.29 1016.94 1017.63 1018.26 1018.69 1018.83 1018.64 1018.10 1017.29 1016.31 1015.33 1014.46 1013.83 1013.51 1013.50 1013.77 1014.23 1014.77 1015.28 1015.69 1015.97 1016.10 1016.13 1016.12 1016.13 1016.20 1016.36 1016.60 1016.88 1017.15 1017.37 1017.49 1017.50 1017.42 1017.28 1017.13 1017.00
1015.79 1015.74 1015.64 1015.58 1015.62 1015.83 1016.24 1016.85 1017.58 1018.34 1018.99 1019.42 1019.52 1019.24 1018.60 1017.66 1016.56 1015.45 1014.47 1013.75 1013.36 1013.31 1013.56 1014.03 1014.59 1015.14 1015.60 1015.92 1016.09 1016.16 1016.17 1016.19 1016.27 1016.42 1016.65 1016.92 1017.18 1017.40 1017.52 1017.55 1017.48 1017.36 1017.23 1017.14
1015.98 1015.95 1015.89 1015.88 1015.98 1016.25 1016.74 1017.40 1018.18 1018.96 1019.61 1020.01 1020.05 1019.71 1018.98 1017.95 1016.75 1015.54 1014.48 1013.68 1013.23 1013.13 1013.35 1013.81 1014.38 1014.95 1015.45 1015.82 1016.05 1016.16 1016.22 1016.27 1016.37 1016.53 1016.76 1017.02 1017.28 1017.48 1017.60 1017.62 1017.57 1017.46 1017.36 1017.29
1016.07 1016.10 1016.11 1016.16 1016.32 1016.65 1017.17 1017.85 1018.63 1019.40 1020.02 1020.38 1020.39 1019.99 1019.22 1018.15 1016.91 1015.66 1014.55 1013.70 1013.19 1013.05 1013.23 1013.65 1014.20 1014.78 1015.30 1015.70 1015.99 1016.17 1016.28 1016.39 1016.52 1016.71 1016.94 1017.20 1017.44 1017.63 1017.74 1017.76 1017.71 1017.61 1017.52 1017.47
1016.06 1016.17 1016.25 1016.36 1016.57 1016.93 1017.46 1018.13 1018.88 1019.61 1020.19 1020.51 1020.50 1020.10 1019.34 1018.28 1017.07 1015.83 1014.72 1013.86 1013.31 1013.11 1013.23 1013.60 1014.11 1014.66 1015.18 1015.61 1015.94 1016.17 1016.35 1016.52 1016.70 1016.92 1017.17 1017.43 1017.66 1017.84 1017.94 1017.96 1017.91 1017.82 1017.74 1017.72
1015.96 1016.15 1016.30 1016.47 1016.71 1017.07 1017.58 1018.21 1018.90 1019.57 1020.11 1020.42 1020.41 1020.06 1019.36 1018.39 1017.26 1016.09 1015.03 1014.18 1013.62 1013.36 1013.41 1013.69 1014.12 1014.62 1015.10 1015.54 1015.89 1016.17 1016.41 1016.63 1016.87 1017.12 1017.40 1017.67 1017.91 1018.08 1018.18 1018.20 1018.15 1018.08 1018.03 1018.02
1015.82 1016.09 1016.30 1016.50 1016.75 1017.09 1017.54 1018.11 1018.73 1019.34 1019.84 1020.14 1020.18 1019.90 1019.32 1018.49 1017.49 1016.45 1015.47 1014.65 1014.08 1013.77 1013.72 1013.90 1014.22 1014.63 1015.05 1015.45 1015.81 1016.12 1016.41 1016.69 1016.97 1017.28 1017.59 1017.88 1018.13 1018.32 1018.43 1018.46 1018.44 1018.39 1018.35 1018.37
1015.73 1016.04 1016.29 1016.51 1016.74 1017.03 1017.42 1017.89 1018.43 1018.97 1019.43 1019.75 1019.85 1019.68 1019.26 1018.59 1017.76 1016.86 1015.99 1015.23 1014.64 1014.27 1014.12 1014.16 1014.35 1014.64 1014.97 1015.31 1015.65 1015.97 1016.30 1016.63 1016.97 1017.32 1017.67 1018.00 1018.29 1018.51 1018.64 1018.71 1018.72 1018.71 1018.71 1018.75
1015.72 1016.07 1016.33 1016.54 1016.73 1016.96 1017.26 1017.64 1018.08 1018.55 1018.98 1019.31 1019.47 1019.43 1019.16 1018.67 1018.03 1017.28 1016.51 1015.80 1015.20 1014.76 1014.50 1014.39 1014.43 1014.58 1014.80 1015.07 1015.36 1015.69 1016.04 1016.41 1016.81 1017.22 1017.63 1018.01 1018.35 1018.62 1018.81 1018.93 1018.99 1019.03 1019.06 1019.13
1015.83 1016.18 1016.44 1016.62 1016.77 1016.93 1017.14 1017.41 1017.75 1018.14 1018.53 1018.86 1019.09 1019.15 1019.02 1018.70 1018.22 1017.61 1016.94 1016.27 1015.66 1015.14 1014.76 1014.51 1014.40 1014.40 1014.50 1014.69 1014.94 1015.25 1015.62 1016.04 1016.49 1016.97 1017.44 1017.89 1018.30 1018.63 1018.90 1019.09 1019.22 1019.31 1019.39 1019.48
1016.02 1016.37 1016.62 1016.77 1016.86 1016.95 1017.06 1017.22 1017.47 1017.77 1018.10 1018.42 1018.68 1018.82 1018.80 1018.62 1018.26 1017.77 1017.18 1016.55 1015.92 1015.34 1014.85 1014.47 1014.22 1014.09 1014.08 1014.18 1014.39 1014.69 1015.08 1015.54 1016.04 1016.58 1017.13 1017.66 1018.14 1018.56 1018.90 1019.17 1019.38 1019.53 1019.65 1019.77
1016.23 1016.57 1016.79 1016.92 1016.96 1016.98 1017.00 1017.07 1017.20 1017.42 1017.69 1017.97 1018.23 1018.40 1018.46 1018.37 1018.11 1017.71 1017.19 1016.58 1015.94 1015.31 1014.74 1014.26 1013.90 1013.67 1013.57 1013.61 1013.79 1014.08 1014.48 1014.97 1015.52 1016.12 1016.73 1017.33 1017.90 1018.40 1018.83 1019.18 1019.46 1019.67 1019.84 1019.97
1016.34 1016.68 1016.89 1016.99 1017.00 1016.96 1016.91 1016.89 1016.94 1017.06 1017.25 1017.48 1017.71 1017.89 1017.99 1017.95 1017.76 1017.42 1016.95 1016.38 1015.75 1015.10 1014.48 1013.94 1013.51 1013.21 1013.06 1013.06 1013.21 1013.49 1013.90 1014.41 1015.00 1015.64 1016.31 1016.97 1017.59 1018.17 1018.68 1019.11 1019.45 1019.72 1019.93 1020.08
1016.29 1016.63 1016.84 1016.94 1016.93 1016.85 1016.75 1016.66 1016.63 1016.67 1016.78 1016.95 1017.13 1017.30 1017.39 1017.38 1017.23 1016.95 1016.53 1016.00 1015.40 1014.77 1014.15 1013.60 1013.15 1012.82 1012.64 1012.61 1012.74 1013.01 1013.42 1013.93 1014.53 1015.19 1015.88 1016.58 1017.25 1017.88 1018.45 1018.94 1019.34 1019.67 1019.91 1020.08
1016.05 1016.39 1016.62 1016.71 1016.71 1016.62 1016.49 1016.36 1016.28 1016.25 1016.29 1016.39 1016.53 1016.65 1016.73 1016.73 1016.62 1016.38 1016.01 1015.55 1015.00 1014.42 1013.84 1013.32 1012.88 1012.56 1012.38 1012.35 1012.46 1012.71 1013.09 1013.59 1014.16 1014.81 1015.49 1016.19 1016.88 1017.53 1018.14 1018.67 1019.12 1019.49 1019.77 1019.96
1015.65 1016.00 1016.23 1016.35 1016.36 1016.28 1016.16 1016.02 1015.91 1015.84 1015.83 1015.87 1015.96 1016.04 1016.11 1016.10 1016.01 1015.81 1015.51 1015.11 1014.64 1014.14 1013.63 1013.17 1012.78 1012.49 1012.32 1012.28 1012.38 1012.60 1012.94 1013.38 1013.90 1014.50 1015.13 1015.80 1016.47 1017.12 1017.74 1018.30 1018.79 1019.19 1019.51 1019.73
1015.18 1015.53 1015.78 1015.92 1015.96 1015.92 1015.82 1015.70 1015.58 1015.50 1015.46 1015.47 1015.51 1015.56 1015.59 1015.58 1015.51 1015.35 1015.10 1014.78 1014.40 1013.98 1013.57 1013.18 1012.85 1012.61 1012.46 1012.41 1012.48 1012.65 1012.93 1013.29 1013.74 1014.25 1014.81 1015.41 1016.04 1016.66 1017.27 1017.84 1018.35 1018.79 1019.15 1019.41
1014.75 1015.09 1015.36 1015.53 1015.61 1015.62 1015.56 1015.47 1015.38 1015.30 1015.26 1015.24 1015.24 1015.26 1015.27 1015.25 1015.18 1015.05 1014.85 1014.59 1014.29 1013.96 1013.63 1013.32 1013.06 1012.86 1012.73 1012.68 1012.71 1012.83 1013.02 1013.30 1013.64 1014.05 1014.52 1015.04 1015.59 1016.17 1016.75 1017.32 1017.84 1018.31 1018.71 1019.02
1014.49 1014.81 1015.08 1015.27 1015.40 1015.46 1015.46 1015.42 1015.37 1015.31 1015.26 1015.23 1015.21 1015.20 1015.18 1015.13 1015.05 1014.93 1014.76 1014.55 1014.31 1014.05 1013.79 1013.55 1013.34 1013.17 1013.05 1012.99 1012.99 1013.05 1013.17 1013.35 1013.59 1013.90 1014.27 1014.69 1015.17 1015.69 1016.23 1016.78 1017.31 1017.80 1018.24 1018.61
Thickness
5757 5746 5739 5747 5752 5752 5751 5745 5744 5751 5763 5755 5747 5747 5755 5761 5759 5757 5756 5754 5752 5752 5753 5753 5751 5748 5745 5742 5739 5737 5734 5733 5731 5728 5726 5723 5722 5723 5724 5724 5724 5724 5723 5724
5744 5739 5751 5758 5758 5752 5748 5741 5742 5750 5759 5752 5745 5746 5756 5760 5759 5759 5757 5754 5752 5750 5749 5747 5746 5745 5742 5738 5737 5735 5733 5731 5729 5726 5726 5724 5723 5722 5722 5722 5722 5722 5722 5722
5738 5747 5757 5752 5747 5742 5742 5739 5738 5737 5747 5751 5742 5736 5748 5759 5762 5761 5761 5759 5756 5751 5747 5745 5743 5741 5739 5736 5735 5734 5731 5729 5727 5725 5724 5723 5721 5720 5718 5718 5718 5720 5720 5720
5743 5752 5750 5744 5742 5742 5732 5746 5744 5738 5729 5727 5736 5716 5739 5752 5752 5754 5755 5756 5755 5753 5749 5745 5742 5738 5737 5735 5734 5733 5730 5727 5725 5723 5720 5718 5714 5712 5715 5716 5716 5718 5718 5718
5739 5746 5743 5737 5741 5744 5739 5748 5743 5737 5729 5724 5732 5721 5731 5748 5741 5747 5752 5753 5754 5752 5749 5745 5742 5738 5737 5735 5732 5730 5727 5724 5722 5720 5718 5716 5714 5715 5716 5716 5715 5715 5716 5717
5744 5752 5748 5744 5749 5749 5745 5740 5739 5735 5725 5708 5727 5721 5722 5739 5743 5746 5751 5753 5753 5751 5748 5744 5742 5737 5733 5731 5729 5726 5723 5720 5719 5717 5716 5715 5713 5714 5713 5713 5712 5713 5713 5715
5731 5740 5748 5750 5738 5741 5737 5720 5705 5702 5699 5709 5737 5727 5728 5747 5754 5751 5749 5751 5752 5750 5745 5741 5736 5733 5729 5726 5724 5722 5719 5716 5716 5715 5714 5714 5714 5715 5713 5712 5712 5712 5711 5711
5717 5718 5739 5743 5735 5728 5729 5722 5701 5692 5698 5713 5728 5722 5735 5754 5756 5755 5753 5751 5749 5746 5743 5738 5735 5731 5727 5724 5721 5719 5716 5713 5713 5713 5714 5715 5715 5714 5714 5714 5713 5712 5711 5712
5721 5720 5741 5743 5742 5735 5722 5720 5727 5712 5710 5704 5716 5729 5737 5749 5746 5746 5746 5745 5743 5742 5740 5737 5733 5730 5726 5722 5719 5717 5715 5713 5712 5712 5713 5713 5714 5713 5713 5714 5714 5713 5713 5713
5731 5718 5729 5737 5736 5734 5731 5726 5716 5702 5690 5688 5706 5714 5716 5727 5732 5737 5738 5738 5739 5739 5738 5736 5732 5729 5725 5722 5719 5717 5715 5713 5712 5711 5711 5712 5712 5712 5712 5712 5711 5712 5713 5713
5731 5716 5717 5724 5719 5717 5719 5717 5714 5708 5704 5690 5686 5700 5733 5730 5733 5733 5735 5737 5737 5736 5734 5733 5731 5728 5725 5721 5718 5715 5714 5712 5711 5710 5710 5710 5710 5710 5710 5709 5710 5711 5711 5712
5727 5717 5707 5716 5730 5733 5724 5719 5713 5695 5696 5702 5692 5700 5737 5737 5737 5735 5735 5736 5737 5734 5732 5731 5729 5726 5722 5719 5716 5714 5714 5712 5710 5710 5709 5708 5708 5708 5707 5707 5708 5710 5710 5710
5718 5708 5693 5693 5704 5717 5715 5717 5715 5709 5701 5696 5688 5698 5733 5735 5734 5734 5733 5733 5733 5731 5729 5727 5725 5722 5720 5718 5716 5714 5713 5712 5710 5709 5707 5707 5706 5706 5706 5705 5706 5707 5708 5708
5712 5703 5697 5687 5696 5706 5705 5709 5712 5706 5692 5691 5698 5704 5717 5725 5727 5729 5730 5730 5729 5728 5726 5724 5721 5720 5719 5717 5716 5715 5713 5712 5710 5708 5706 5705 5704 5705 5705 5705 5705 5705 5706 5705
5703 5693 5702 5708 5713 5712 5708 5708 5708 5705 5704 5698 5704 5710 5718 5724 5727 5729 5729 5729 5726 5724 5723 5721 5719 5718 5717 5716 5716 5714 5713 5711 5709 5707 5705 5704 5705 5704 5704 5703 5702 5702 5702 5703
5694 5688 5693 5696 5706 5706 5704 5708 5709 5707 5708 5707 5709 5713 5730 5733 5733 5730 5728 5726 5722 5722 5722 5721 5720 5718 5717 5715 5715 5714 5712 5711 5709 5706 5704 5704 5703 5702 5701 5700 5700 5699 5698 5698
5682 5681 5678 5680 5696 5695 5689 5707 5708 5708 5712 5710 5705 5715 5727 5726 5726 5726 5727 5725 5723 5722 5721 5720 5720 5719 5718 5717 5716 5714 5713 5711 5709 5706 5704 5703 5702 5699 5698 5698 5697 5695 5694 5694
5673 5673 5673 5673 5678 5664 5698 5723 5720 5713 5715 5719 5719 5723 5726 5726 5726 5729 5729 5725 5723 5722 5721 5720 5720 5720 5720 5720 5718 5716 5714 5711 5708 5706 5705 5703 5700 5698 5696 5695 5693 5692 5691 5690
5676 5667 5662 5664 5663 5673 5698 5715 5717 5708 5707 5721 5720 5722 5725 5727 5724 5722 5728 5728 5725 5725 5724 5723 5723 5722 5722 5720 5719 5716 5713 5711 5708 5706 5704 5702 5700 5696 5694 5692 5690 5690 5688 5687
5672 5669 5659 5657 5654 5658 5689 5713 5723 5712 5698 5718 5720 5719 5721 5720 5703 5708 5724 5726 5725 5725 5724 5723 5722 5722 5721 5720 5720 5715 5712 5710 5707 5705 5704 5702 5699 5695 5692 5690 5689 5688 5686 5684
5652 5655 5652 5651 5652 5669 5699 5712 5713 5686 5691 5716 5719 5718 5717 5714 5713 5719 5725 5724 5723 5723 5723 5722 5720 5719 5719 5720 5718 5713 5710 5708 5708 5705 5702 5700 5697 5694 5691 5688 5686 5685 5683 5681
5651 5650 5650 5651 5648 5662 5701 5702 5696 5698 5712 5715 5716 5717 5716 5717 5719 5720 5720 5719 5719 5718 5719 5719 5716 5716 5717 5718 5715 5710 5707 5708 5707 5703 5699 5696 5694 5692 5689 5685 5683 5682 5679 5676
5658 5662 5662 5663 5667 5689 5700 5700 5706 5710 5708 5710 5712 5714 5715 5713 5713 5714 5714 5713 5714 5714 5714 5715 5714 5712 5713 5714 5712 5707 5705 5705 5703 5698 5695 5692 5690 5688 5686 5682 5679 5677 5675 5673
5659 5669 5666 5666 5675 5687 5694 5697 5701 5704 5705 5708 5710 5711 5711 5709 5709 5709 5709 5709 5709 5710 5709 5710 5709 5707 5707 5708 5708 5706 5704 5703 5699 5694 5691 5689 5686 5683 5682 5680 5677 5674 5672 5669
5650 5653 5654 5658 5671 5680 5685 5689 5694 5698 5701 5703 5705 5707 5707 5705 5704 5704 5704 5704 5705 5705 5705 5705 5704 5702 5702 5703 5702 5702 5701 5699 5694 5690 5687 5684 5682 5679 5676 5673 5671 5670 5669 5668
5648 5649 5647 5652 5666 5669 5675 5686 5691 5691 5692 5695 5697 5698 5701 5702 5700 5700 5700 5701 5701 5701 5701 5699 5699 5698 5699 5699 5698 5697 5697 5694 5690 5685 5682 5680 5677 5675 5671 5667 5663 5662 5662 5662